Flag for Canada Weather past 2 weeks in Thunder Bay, Ontario, Canada

Now
25 °F

Clear.


Feels Like: 19 °F
Forecast: 29 / 53 °F
Wind: 5 mph from West

Location: Thunder Bay

Current Time: Apr 26, 2015 at 5:16:53 AM

Latest Report: Apr 26, 2015 at 4:00 AM


Visibility: 15 mi

Pressure: 30.14 "Hg

Humidity: 86%

Dew point: 21 °F

Location of Thunder BayLocation

Historic Weather in Thunder Bay — Graph

°F

Thunder Bay temperature yesterday

Maximum temperature yesterday: 48 °F (at 2:00 PM)
Minimum temperature yesterday: 27 °F (at 7:00 AM)
Average temperature yesterday: 38 °F

Past Weeks' High & Low Weather Summary

 TemperatureHumidityPressure
High70 °F (Apr 12, 6:00 PM)100% (Apr 17, 4:00 AM)30.34 "Hg (Apr 17, 4:00 AM)
Low18 °F (Apr 24, 7:00 AM)13% (Apr 14, 4:00 PM)29.21 "Hg (Apr 20, 4:00 PM)
Average41 °F64%29.90 "Hg
* Reported Apr 11 4:00 AM — Apr 26 4:00 AM, Thunder Bay, Weather by CustomWeather, © 2015

Note: Actual official high and low records may vary slightly from our data, if they occured in-between our weather recording intervals... More about our weather records

Advertising

Thunder Bay weather history for previous 24 hours

 ConditionsComfort  
Time TempWeatherWind HumidityBarometerVisibility
4:00 AM
Sun, Apr 26
25 °FClear.5 mph86%30.14 "Hg15 mi
3:00 AM27 °FClear.5 mph80%30.13 "Hg15 mi
2:00 AM27 °FClear.5 mph80%30.12 "Hg15 mi
1:00 AM27 °FClear.6 mph80%30.11 "Hg15 mi
12:00 AM27 °FClear.3 mph74%30.11 "Hg15 mi
11:00 PM
Sat, Apr 25
32 °FClear.3 mph64%30.09 "Hg15 mi
10:00 PM34 °FSunny.2 mph65%30.08 "Hg15 mi
9:00 PM43 °FSunny.5 mph36%30.06 "Hg20 mi
8:00 PM46 °FPassing clouds.7 mph29%30.05 "Hg20 mi
7:00 PM48 °FPassing clouds.7 mph27%30.04 "Hg20 mi
6:00 PM48 °FSunny.8 mph29%30.04 "Hg20 mi
5:00 PM48 °FSunny.9 mph27%30.04 "Hg20 mi
4:00 PM48 °FSunny.10 mph25%30.06 "Hg20 mi
3:00 PM46 °FSunny.14 mph32%30.07 "Hg20 mi
2:00 PM48 °FSunny.10 mph29%30.08 "Hg20 mi
1:00 PM46 °FPassing clouds.12 mph32%30.09 "Hg20 mi
12:00 PM43 °FPassing clouds.8 mph36%30.10 "Hg20 mi
11:00 AM41 °FPassing clouds.9 mph42%30.10 "Hg20 mi
10:00 AM39 °FPassing clouds.9 mph45%30.10 "Hg20 mi
9:00 AM36 °FPartly sunny.2 mph44%30.11 "Hg20 mi
8:00 AM30 °FPartly sunny.No wind80%30.10 "Hg20 mi
7:00 AM27 °FPassing clouds.No wind86%30.10 "Hg20 mi
6:00 AM28 °FPassing clouds.5 mph80%30.09 "Hg15 mi
5:00 AM28 °FPassing clouds.3 mph86%30.07 "Hg15 mi
Weather by CustomWeather, © 2015

See weather overviewHow to use our weather pages